Regional Weather Roundup
Issued by NWS Jackson, KY

Home | Current Version | Previous Version | Text Only | Print | Product List | Glossary Off
Versions: 1 2 3 4 5 6 7 8 9 10 11 12 13 14 15 16 17 18 19 20 21 22 23 24 25 26 27 28 29 30 31 32 33 34 35 36 37 38 39 40 41 42 43 44 45 46 47 48 49 50

000
ASUS43 KJKL 300310
RWRJKL

EAST KENTUCKY HOURLY WEATHER ROUNDUP
NATIONAL WEATHER SERVICE JACKSON KY
1100 PM EDT FRI MAY 29 2015

NOTE: "FAIR" INDICATES FEW OR NO CLOUDS BELOW 12,000 FEET WITH
NO SIGNIFICANT WEATHER AND/OR OBSTRUCTIONS TO VISIBILITY.

* THESE REPORTS ARE NOT UNDER NWS QUALITY CONTROL AND MAY NOT
  REPORT WEATHER SUCH AS PRECIPITATION AND FOG.

KYZ079-080-083-085-087-088-110-112-115-119-120-300400
...EASTERN KENTUCKY...

CITY           SKY/WX    TMP DP  RH WIND       PRES   REMARKS
JACKSON        CLEAR     71  62  73 S3        30.17R
LONDON         MOCLDY    69  64  84 CALM      30.16R
SOMERSET*      PTCLDY    68  68 100 CALM      30.16R
MONTICELLO*    PTCLDY    71  69  93 S3        30.17R
MIDDLESBORO*   CLOUDY    68  65  90 NW3       30.19R
HARLAN APT*    MOCLDY    64  64 100 CALM      30.19R
BLACK MTN*       N/A    N/A N/A N/A SW1         N/A
PIKEVILLE APT* CLEAR     70  64  83 S3        30.16S
BIG SANDY*       N/A     67  66  97 CALM      30.16R FOG
MOREHEAD APT*  MOCLDY    70  68  94 SE5       30.16R
$$

KYZ035-036-041-042-044-050-067-078-099-300400
...CENTRAL KENTUCKY...

CITY           SKY/WX    TMP DP  RH WIND       PRES   REMARKS
MT STERLING*   PTCLDY    70  70 100 SW5       30.15S
FLEMING/MASON* PTCLDY    70  66  88 S7        30.14R
DANVILLE*      MOCLDY    70  64  83 CALM      30.15R
RICHMOND*      CLOUDY    70  66  88 SE5       30.14R
LEXINGTON      MOCLDY    73  65  75 S7        30.13R
FRANKFORT      CLOUDY    75  65  70 S5        30.10R
$$

KYZ091>093-OHZ055-061-077-WVZ005-015-034-035-042-300400
...SOUTHERN OHIO/WEST VIRGINIA...

CITY           SKY/WX    TMP DP  RH WIND       PRES   REMARKS
COVINGTON      MOCLDY    72  67  84 S6        30.09R
COLUMBUS       MOCLDY    75  65  70 S6        30.09R
DAYTON         MOCLDY    77  64  64 S13G23    30.08R
WILMINGTON     PTCLDY    71  62  73 S9        30.10R
HUNTINGTON     MOCLDY    69  67  93 CALM      30.12R
CHARLESTON     MOCLDY    68  67  96 CALM      30.14S FOG
PINEVILLE*       N/A     64  64 100 MISG      30.24S FOG
BECKLEY        CLEAR     65  59  81 SE8       30.23S
BLUEFIELD      CLEAR     67  59  75 S6        30.27R
$$

VAZ002-007-008-TNZ017-027-036-066-071-300400
...SOUTHWEST VIRGINIA/EAST TENNESSEE...

CITY           SKY/WX    TMP DP  RH WIND       PRES   REMARKS
WISE*          MOCLDY    68  59  73 S6        30.25S
JONESVILLE*    MOCLDY    66  66 100 CALM      30.21S
ABINGDON*      CLEAR     67  67  99 CALM      30.23S
BRISTOL        PTCLDY    65  63  93 CALM      30.20R
KNOXVILLE      MOCLDY    71  67  87 CALM      30.16R
OAK RIDGE      PTCLDY    74  64  71 CALM      30.18R
CROSSVILLE     MOCLDY    68  63  84 CALM      30.19R
NASHVILLE      PTCLDY    73  67  81 CALM      30.11R
$$

...KEY TO REMARKS...
VSB - VISIBILITY IN MILES
WCI - WIND CHILL INDEX
HX  - HEAT INDEX

$$



USA.gov is the U.S. government's official web portal to all federal, state and local government web resources and services.